Location: Newark
(52.3500°N, 175.9667°E)
Time: 23:49:57
(UTC+00:00)

Vanguard 1 - Pass Details

Date: 26 April 2021
Orbit: 649 x 3834 km, 34.2° (Epoch: 04 May)

Event Time Altitude Azimuth Distance (km) Brightness Sun altitude
Rises 03:00:37 0° 248° (WSW) 5,503 14.8 39.0°
Reaches altitude 10° 03:03:55 10° 242° (WSW) 4,870 14.9 38.6°
Maximum altitude 03:17:42 43° 178° (S) 4,041 13.9 36.8°
Drops below altitude 10° 03:37:48 10° 117° (ESE) 6,929 14.1 34.0°
Sets 03:43:43 0° 112° (ESE) 7,955 14.3 33.2°
